Year,Month,Day,Hour,Minute,Value (Times are PST for temperature in C)
2012,06,27,00,00,12.30
2012,06,27,00,01,12.30
2012,06,27,00,02,12.30
2012,06,27,00,03,12.30
2012,06,27,00,04,12.30
2012,06,27,00,05,12.30
2012,06,27,00,06,12.30
2012,06,27,00,07,12.30
2012,06,27,00,08,12.30
2012,06,27,00,09,12.20
2012,06,27,00,10,12.20
2012,06,27,00,11,12.20
2012,06,27,00,12,12.20
2012,06,27,00,13,12.20
2012,06,27,00,14,12.20
2012,06,27,00,15,12.20
2012,06,27,00,16,12.20
2012,06,27,00,17,12.20
2012,06,27,00,18,12.20
2012,06,27,00,19,12.20
2012,06,27,00,20,12.20
2012,06,27,00,21,12.10
2012,06,27,00,22,12.10
2012,06,27,00,23,12.10
2012,06,27,00,24,12.10
2012,06,27,00,25,12.10
2012,06,27,00,26,12.10
2012,06,27,00,27,12.10
2012,06,27,00,28,12.10
2012,06,27,00,29,12.00
2012,06,27,00,30,12.00
2012,06,27,00,31,12.00
2012,06,27,00,32,12.00
2012,06,27,00,33,12.00
2012,06,27,00,34,12.00
2012,06,27,00,35,12.00
2012,06,27,00,36,12.00
2012,06,27,00,37,12.00
2012,06,27,00,38,12.00
2012,06,27,00,39,11.90
2012,06,27,00,40,11.90
2012,06,27,00,41,11.90
2012,06,27,00,42,11.90
2012,06,27,00,43,11.90
2012,06,27,00,44,11.80
2012,06,27,00,45,11.80
2012,06,27,00,46,11.80
2012,06,27,00,47,11.80
2012,06,27,00,48,11.80
2012,06,27,00,49,11.80
2012,06,27,00,50,11.80
2012,06,27,00,51,11.80
2012,06,27,00,52,11.70
2012,06,27,00,53,11.70
2012,06,27,00,54,11.70
2012,06,27,00,55,11.70
2012,06,27,00,56,11.70
2012,06,27,00,57,11.60
2012,06,27,00,58,11.60
2012,06,27,00,59,11.60
2012,06,27,01,00,11.60
2012,06,27,01,01,11.60
2012,06,27,01,02,11.60
2012,06,27,01,03,11.60
2012,06,27,01,04,11.60
2012,06,27,01,05,11.60
2012,06,27,01,06,11.60
2012,06,27,01,07,11.60
2012,06,27,01,08,11.60
2012,06,27,01,09,11.60
2012,06,27,01,10,11.60
2012,06,27,01,11,11.60
2012,06,27,01,12,11.60
2012,06,27,01,13,11.60
2012,06,27,01,14,11.50
2012,06,27,01,15,11.40
2012,06,27,01,16,11.40
2012,06,27,01,17,11.40
2012,06,27,01,18,11.40
2012,06,27,01,19,11.40
2012,06,27,01,20,11.40
2012,06,27,01,21,11.40
2012,06,27,01,22,11.40
2012,06,27,01,23,11.40
2012,06,27,01,24,11.40
2012,06,27,01,25,11.40
2012,06,27,01,26,11.40
2012,06,27,01,27,11.40
2012,06,27,01,28,11.40
2012,06,27,01,29,11.40
2012,06,27,01,30,11.40
2012,06,27,01,31,11.40
2012,06,27,01,32,11.40
2012,06,27,01,33,11.40
2012,06,27,01,34,11.30
2012,06,27,01,35,11.30
2012,06,27,01,36,11.30
2012,06,27,01,37,11.30
2012,06,27,01,38,11.30
2012,06,27,01,39,11.20
2012,06,27,01,40,11.20
2012,06,27,01,41,11.20
2012,06,27,01,42,11.20
2012,06,27,01,43,11.10
2012,06,27,01,44,11.10
2012,06,27,01,45,11.10
2012,06,27,01,46,11.10
2012,06,27,01,47,11.10
2012,06,27,01,48,11.10
2012,06,27,01,49,11.10
2012,06,27,01,50,11.10
2012,06,27,01,51,11.10
2012,06,27,01,52,11.20
2012,06,27,01,53,11.20
2012,06,27,01,54,11.20
2012,06,27,01,55,11.20
2012,06,27,01,56,11.30
2012,06,27,01,57,11.30
2012,06,27,01,58,11.30
2012,06,27,01,59,11.40
2012,06,27,02,00,11.40
2012,06,27,02,01,11.40
2012,06,27,02,02,11.40
2012,06,27,02,03,11.40
2012,06,27,02,04,11.40
2012,06,27,02,05,11.40
2012,06,27,02,06,11.40
2012,06,27,02,07,11.40
2012,06,27,02,08,11.40
2012,06,27,02,09,11.40
2012,06,27,02,10,11.40
2012,06,27,02,11,11.40
2012,06,27,02,12,11.40
2012,06,27,02,13,11.40
2012,06,27,02,14,11.40
2012,06,27,02,15,11.40
2012,06,27,02,16,11.50
2012,06,27,02,17,11.60
2012,06,27,02,18,11.60
2012,06,27,02,19,11.60
2012,06,27,02,20,11.60
2012,06,27,02,21,11.60
2012,06,27,02,22,11.60
2012,06,27,02,23,11.60
2012,06,27,02,24,11.60
2012,06,27,02,25,11.60
2012,06,27,02,26,11.60
2012,06,27,02,27,11.50
2012,06,27,02,28,11.50
2012,06,27,02,29,11.40
2012,06,27,02,30,11.40
2012,06,27,02,31,11.40
2012,06,27,02,32,11.40
2012,06,27,02,33,11.40
2012,06,27,02,34,11.40
2012,06,27,02,35,11.40
2012,06,27,02,36,11.40
2012,06,27,02,37,11.30
2012,06,27,02,38,11.30
2012,06,27,02,39,11.30
2012,06,27,02,40,11.20
2012,06,27,02,41,11.20
2012,06,27,02,42,11.30
2012,06,27,02,43,11.20
2012,06,27,02,44,11.20
2012,06,27,02,45,11.20
2012,06,27,02,46,11.10
2012,06,27,02,47,11.10
2012,06,27,02,48,11.10
2012,06,27,02,49,11.00
2012,06,27,02,50,10.90
2012,06,27,02,51,10.90
2012,06,27,02,52,10.90
2012,06,27,02,53,10.90
2012,06,27,02,54,10.80
2012,06,27,02,55,10.80
2012,06,27,02,56,10.70
2012,06,27,02,57,10.70
2012,06,27,02,58,10.70
2012,06,27,02,59,10.60
2012,06,27,03,00,10.60
2012,06,27,03,01,10.60
2012,06,27,03,02,10.50
2012,06,27,03,03,10.40
2012,06,27,03,04,10.40
2012,06,27,03,05,10.40
2012,06,27,03,06,10.30
2012,06,27,03,07,10.30
2012,06,27,03,08,10.20
2012,06,27,03,09,10.10
2012,06,27,03,10,10.10
2012,06,27,03,11,10.00
2012,06,27,03,12,9.90
2012,06,27,03,13,9.90
2012,06,27,03,14,9.80
2012,06,27,03,15,9.70
2012,06,27,03,16,9.70
2012,06,27,03,17,9.60
2012,06,27,03,18,9.50
2012,06,27,03,19,9.50
2012,06,27,03,20,9.40
2012,06,27,03,21,9.30
2012,06,27,03,22,9.30
2012,06,27,03,23,9.20
2012,06,27,03,24,9.20
2012,06,27,03,25,9.20
2012,06,27,03,26,9.10
2012,06,27,03,27,9.10
2012,06,27,03,28,9.00
2012,06,27,03,29,9.00
2012,06,27,03,30,9.00
2012,06,27,03,31,8.90
2012,06,27,03,32,8.90
2012,06,27,03,33,8.90
2012,06,27,03,34,8.80
2012,06,27,03,35,8.80
2012,06,27,03,36,8.70
2012,06,27,03,37,8.70
2012,06,27,03,38,8.70
2012,06,27,03,39,8.70
2012,06,27,03,40,8.70
2012,06,27,03,41,8.70
2012,06,27,03,42,8.70
2012,06,27,03,43,8.70
2012,06,27,03,44,8.70
2012,06,27,03,45,8.60
2012,06,27,03,46,8.60
2012,06,27,03,47,8.60
2012,06,27,03,48,8.60
2012,06,27,03,49,8.60
2012,06,27,03,50,8.60
2012,06,27,03,51,8.50
2012,06,27,03,52,8.50
2012,06,27,03,53,8.50
2012,06,27,03,54,8.50
2012,06,27,03,55,8.50
2012,06,27,03,56,8.40
2012,06,27,03,57,8.40
2012,06,27,03,58,8.40
2012,06,27,03,59,8.40
2012,06,27,04,00,8.30
2012,06,27,04,01,8.30
2012,06,27,04,02,8.30
2012,06,27,04,03,8.30
2012,06,27,04,04,8.30
2012,06,27,04,05,8.30
2012,06,27,04,06,8.30
2012,06,27,04,07,8.30
2012,06,27,04,08,8.30
2012,06,27,04,09,8.20
2012,06,27,04,10,8.20
2012,06,27,04,11,8.20
2012,06,27,04,12,8.20
2012,06,27,04,13,8.20
2012,06,27,04,14,8.20
2012,06,27,04,15,8.20
2012,06,27,04,16,8.20
2012,06,27,04,17,8.20
2012,06,27,04,18,8.20
2012,06,27,04,19,8.20
2012,06,27,04,20,8.20
2012,06,27,04,21,8.10
2012,06,27,04,22,8.10
2012,06,27,04,23,8.10
2012,06,27,04,24,8.10
2012,06,27,04,25,8.00
2012,06,27,04,26,8.00
2012,06,27,04,27,8.00
2012,06,27,04,28,8.00
2012,06,27,04,29,8.00
2012,06,27,04,30,7.90
2012,06,27,04,31,7.90
2012,06,27,04,32,7.90
2012,06,27,04,33,7.90
2012,06,27,04,34,7.90
2012,06,27,04,35,7.80
2012,06,27,04,36,7.80
2012,06,27,04,37,7.80
2012,06,27,04,38,7.80
2012,06,27,04,39,7.80
2012,06,27,04,40,7.80
2012,06,27,04,41,7.80
2012,06,27,04,42,7.80
2012,06,27,04,43,7.80
2012,06,27,04,44,7.80
2012,06,27,04,45,7.80
2012,06,27,04,46,7.80
2012,06,27,04,47,7.80
2012,06,27,04,48,7.80
2012,06,27,04,49,7.80
2012,06,27,04,50,7.80
2012,06,27,04,51,7.80
2012,06,27,04,52,7.80
2012,06,27,04,53,7.80
2012,06,27,04,54,7.80
2012,06,27,04,55,7.80
2012,06,27,04,56,7.80
2012,06,27,04,57,7.80
2012,06,27,04,58,7.80
2012,06,27,04,59,7.80
2012,06,27,05,00,7.80
2012,06,27,05,01,7.80
2012,06,27,05,02,7.70
2012,06,27,05,03,7.70
2012,06,27,05,04,7.70
2012,06,27,05,05,7.70
2012,06,27,05,06,7.70
2012,06,27,05,07,7.60
2012,06,27,05,08,7.60
2012,06,27,05,09,7.60
2012,06,27,05,10,7.60
2012,06,27,05,11,7.60
2012,06,27,05,12,7.60
2012,06,27,05,13,7.60
2012,06,27,05,14,7.60
2012,06,27,05,15,7.60
2012,06,27,05,16,7.60
2012,06,27,05,17,7.60
2012,06,27,05,18,7.60
2012,06,27,05,19,7.60
2012,06,27,05,20,7.60
2012,06,27,05,21,7.60
2012,06,27,05,22,7.60
2012,06,27,05,23,7.70
2012,06,27,05,24,7.70
2012,06,27,05,25,7.70
2012,06,27,05,26,7.70
2012,06,27,05,27,7.70
2012,06,27,05,28,7.70
2012,06,27,05,29,7.70
2012,06,27,05,30,7.70
2012,06,27,05,31,7.70
2012,06,27,05,32,7.70
2012,06,27,05,33,7.60
2012,06,27,05,34,7.60
2012,06,27,05,35,7.60
2012,06,27,05,36,7.60
2012,06,27,05,37,7.60
2012,06,27,05,38,7.60
2012,06,27,05,39,7.60
2012,06,27,05,40,7.60
2012,06,27,05,41,7.60
2012,06,27,05,42,7.60
2012,06,27,05,43,7.60
2012,06,27,05,44,7.60
2012,06,27,05,45,7.60
2012,06,27,05,46,7.60
2012,06,27,05,47,7.60
2012,06,27,05,48,7.60
2012,06,27,05,49,7.60
2012,06,27,05,50,7.60
2012,06,27,05,51,7.60
2012,06,27,05,52,7.60
2012,06,27,05,53,7.60
2012,06,27,05,54,7.60
2012,06,27,05,55,7.70
2012,06,27,05,56,7.70
2012,06,27,05,57,7.70
2012,06,27,05,58,7.70
2012,06,27,05,59,7.80
2012,06,27,06,00,7.80
2012,06,27,06,01,7.80
2012,06,27,06,02,7.80
2012,06,27,06,03,7.80
2012,06,27,06,04,7.90
2012,06,27,06,05,7.90
2012,06,27,06,06,8.00
2012,06,27,06,07,8.00
2012,06,27,06,08,8.10
2012,06,27,06,09,8.10
2012,06,27,06,10,8.10
2012,06,27,06,11,8.20
2012,06,27,06,12,8.20
2012,06,27,06,13,8.20
2012,06,27,06,14,8.20
2012,06,27,06,15,8.20
2012,06,27,06,16,8.30
2012,06,27,06,17,8.30
2012,06,27,06,18,8.40
2012,06,27,06,19,8.40
2012,06,27,06,20,8.50
2012,06,27,06,21,8.50
2012,06,27,06,22,8.60
2012,06,27,06,23,8.60
2012,06,27,06,24,8.70
2012,06,27,06,25,8.70
2012,06,27,06,26,8.70
2012,06,27,06,27,8.80
2012,06,27,06,28,8.80
2012,06,27,06,29,8.90
2012,06,27,06,30,8.90
2012,06,27,06,31,9.00
2012,06,27,06,32,9.00
2012,06,27,06,33,9.00
2012,06,27,06,34,9.10
2012,06,27,06,35,9.20
2012,06,27,06,36,9.20
2012,06,27,06,37,9.20
2012,06,27,06,38,9.30
2012,06,27,06,39,9.40
2012,06,27,06,40,9.40
2012,06,27,06,41,9.50
2012,06,27,06,42,9.50
2012,06,27,06,43,9.60
2012,06,27,06,44,9.60
2012,06,27,06,45,9.70
2012,06,27,06,46,9.70
2012,06,27,06,47,9.70
2012,06,27,06,48,9.70
2012,06,27,06,49,9.80
2012,06,27,06,50,9.80
2012,06,27,06,51,9.90
2012,06,27,06,52,9.90
2012,06,27,06,53,9.90
2012,06,27,06,54,9.90
2012,06,27,06,55,9.90
2012,06,27,06,56,9.90
2012,06,27,06,57,9.90
2012,06,27,06,58,9.90
2012,06,27,06,59,9.90
2012,06,27,07,00,9.90
2012,06,27,07,01,9.90
2012,06,27,07,02,9.90
2012,06,27,07,03,9.90
2012,06,27,07,04,10.00
2012,06,27,07,05,10.10
2012,06,27,07,06,10.10
2012,06,27,07,07,10.10
2012,06,27,07,08,10.10
2012,06,27,07,09,10.10
2012,06,27,07,10,10.20
2012,06,27,07,11,10.20
2012,06,27,07,12,10.30
2012,06,27,07,13,10.30
2012,06,27,07,14,10.40
2012,06,27,07,15,10.50
2012,06,27,07,16,10.60
2012,06,27,07,17,10.60
2012,06,27,07,18,10.60
2012,06,27,07,19,10.60
2012,06,27,07,20,10.70
2012,06,27,07,21,10.70
2012,06,27,07,22,10.80
2012,06,27,07,23,10.80
2012,06,27,07,24,10.90
2012,06,27,07,25,10.90
2012,06,27,07,26,11.00
2012,06,27,07,27,11.10
2012,06,27,07,28,11.10
2012,06,27,07,29,11.10
2012,06,27,07,30,11.10
2012,06,27,07,31,11.10
2012,06,27,07,32,11.10
2012,06,27,07,33,11.20
2012,06,27,07,34,11.20
2012,06,27,07,35,11.30
2012,06,27,07,36,11.30
2012,06,27,07,37,11.40
2012,06,27,07,38,11.40
2012,06,27,07,39,11.40
2012,06,27,07,40,11.50
2012,06,27,07,41,11.60
2012,06,27,07,42,11.60
2012,06,27,07,43,11.70
2012,06,27,07,44,11.80
2012,06,27,07,45,11.80
2012,06,27,07,46,11.80
2012,06,27,07,47,11.80
2012,06,27,07,48,11.90
2012,06,27,07,49,11.90
2012,06,27,07,50,12.00
2012,06,27,07,51,12.00
2012,06,27,07,52,12.10
2012,06,27,07,53,12.10
2012,06,27,07,54,12.20
2012,06,27,07,55,12.30
2012,06,27,07,56,12.30
2012,06,27,07,57,12.30
2012,06,27,07,58,12.40
2012,06,27,07,59,12.50
2012,06,27,08,00,12.60
2012,06,27,08,01,12.60
2012,06,27,08,02,12.70
2012,06,27,08,03,12.80
2012,06,27,08,04,12.90
2012,06,27,08,05,13.00
2012,06,27,08,06,13.10
2012,06,27,08,07,13.20
2012,06,27,08,08,13.30
2012,06,27,08,09,13.30
2012,06,27,08,10,13.40
2012,06,27,08,11,13.50
2012,06,27,08,12,13.50
2012,06,27,08,13,13.60
2012,06,27,08,14,13.70
2012,06,27,08,15,13.70
2012,06,27,08,16,13.80
2012,06,27,08,17,13.90
2012,06,27,08,18,14.00
2012,06,27,08,19,14.20
2012,06,27,08,20,14.20
2012,06,27,08,21,14.30
2012,06,27,08,22,14.30
2012,06,27,08,23,14.40
2012,06,27,08,24,14.40
2012,06,27,08,25,14.50
2012,06,27,08,26,14.50
2012,06,27,08,27,14.60
2012,06,27,08,28,14.70
2012,06,27,08,29,14.80
2012,06,27,08,30,14.80
2012,06,27,08,31,14.80
2012,06,27,08,32,14.80
2012,06,27,08,33,14.80
2012,06,27,08,34,14.80
2012,06,27,08,35,14.90
2012,06,27,08,36,14.90
2012,06,27,08,37,14.90
2012,06,27,08,38,14.90
2012,06,27,08,39,15.00
2012,06,27,08,40,15.10
2012,06,27,08,41,15.20
2012,06,27,08,42,15.20
2012,06,27,08,43,15.30
2012,06,27,08,44,15.40
2012,06,27,08,45,15.50
2012,06,27,08,46,15.60
2012,06,27,08,47,15.70
2012,06,27,08,48,15.60
2012,06,27,08,49,15.60
2012,06,27,08,50,15.60
2012,06,27,08,51,15.60
2012,06,27,08,52,15.60
2012,06,27,08,53,15.70
2012,06,27,08,54,15.70
2012,06,27,08,55,15.80
2012,06,27,08,56,15.80
2012,06,27,08,57,15.80
2012,06,27,08,58,15.90
2012,06,27,08,59,16.00
2012,06,27,09,00,16.00
2012,06,27,09,01,15.90
2012,06,27,09,02,15.90
2012,06,27,09,03,16.00
2012,06,27,09,04,15.90
2012,06,27,09,05,15.90
2012,06,27,09,06,16.00
2012,06,27,09,07,16.10
2012,06,27,09,08,16.20
2012,06,27,09,09,16.30
2012,06,27,09,10,16.30
2012,06,27,09,11,16.10
2012,06,27,09,12,16.10
2012,06,27,09,13,15.90
2012,06,27,09,14,15.80
2012,06,27,09,15,15.80
2012,06,27,09,16,15.80
2012,06,27,09,17,15.80
2012,06,27,09,18,15.90
2012,06,27,09,19,16.00
2012,06,27,09,20,16.10
2012,06,27,09,21,16.10
2012,06,27,09,22,16.10
2012,06,27,09,23,16.00
2012,06,27,09,24,15.90
2012,06,27,09,25,15.80
2012,06,27,09,26,15.80
2012,06,27,09,27,15.70
2012,06,27,09,28,15.60
2012,06,27,09,29,15.50
2012,06,27,09,30,15.40
2012,06,27,09,31,15.40
2012,06,27,09,32,15.40
2012,06,27,09,33,15.30
2012,06,27,09,34,15.40
2012,06,27,09,35,15.40
2012,06,27,09,36,15.30
2012,06,27,09,37,15.40
2012,06,27,09,38,15.40
2012,06,27,09,39,15.50
2012,06,27,09,40,15.60
2012,06,27,09,41,15.60
2012,06,27,09,42,15.50
2012,06,27,09,43,15.50
2012,06,27,09,44,15.50
2012,06,27,09,45,15.40
2012,06,27,09,46,15.40
2012,06,27,09,47,15.30
2012,06,27,09,48,15.40
2012,06,27,09,49,15.40
2012,06,27,09,50,15.40
2012,06,27,09,51,15.40
2012,06,27,09,52,15.40
2012,06,27,09,53,15.40
2012,06,27,09,54,15.40
2012,06,27,09,55,15.40
2012,06,27,09,56,15.50
2012,06,27,09,57,15.50
2012,06,27,09,58,15.60
2012,06,27,09,59,15.70
2012,06,27,10,00,15.70
2012,06,27,10,01,15.70
2012,06,27,10,02,15.80
2012,06,27,10,03,15.70
2012,06,27,10,04,15.70
2012,06,27,10,05,15.80
2012,06,27,10,06,15.80
2012,06,27,10,07,15.80
2012,06,27,10,08,16.00
2012,06,27,10,09,16.10
2012,06,27,10,10,16.10
2012,06,27,10,11,16.20
2012,06,27,10,12,16.20
2012,06,27,10,13,16.30
2012,06,27,10,14,16.30
2012,06,27,10,15,16.30
2012,06,27,10,16,16.40
2012,06,27,10,17,16.40
2012,06,27,10,18,16.50
2012,06,27,10,19,16.40
2012,06,27,10,20,16.50
2012,06,27,10,21,16.60
2012,06,27,10,22,16.50
2012,06,27,10,23,16.40
2012,06,27,10,24,16.40
2012,06,27,10,25,16.40
2012,06,27,10,26,16.40
2012,06,27,10,27,16.40
2012,06,27,10,28,16.40
2012,06,27,10,29,16.10
2012,06,27,10,30,16.00
2012,06,27,10,31,15.90
2012,06,27,10,32,15.80
2012,06,27,10,33,15.80
2012,06,27,10,34,15.80
2012,06,27,10,35,15.80
2012,06,27,10,36,15.80
2012,06,27,10,37,15.80
2012,06,27,10,38,15.90
2012,06,27,10,39,15.80
2012,06,27,10,40,15.80
2012,06,27,10,41,15.90
2012,06,27,10,42,15.90
2012,06,27,10,43,16.00
2012,06,27,10,44,16.00
2012,06,27,10,45,16.00
2012,06,27,10,46,16.10
2012,06,27,10,47,16.20
2012,06,27,10,48,16.20
2012,06,27,10,49,16.20
2012,06,27,10,50,16.20
2012,06,27,10,51,16.20
2012,06,27,10,52,16.10
2012,06,27,10,53,15.90
2012,06,27,10,54,15.80
2012,06,27,10,55,15.80
2012,06,27,10,56,15.80
2012,06,27,10,57,15.80
2012,06,27,10,58,15.90
2012,06,27,10,59,15.90
2012,06,27,11,00,15.90
2012,06,27,11,01,15.90
2012,06,27,11,02,15.80
2012,06,27,11,03,15.80
2012,06,27,11,04,15.90
2012,06,27,11,05,16.00
2012,06,27,11,06,16.10
2012,06,27,11,07,16.20
2012,06,27,11,08,16.20
2012,06,27,11,09,16.30
2012,06,27,11,10,16.30
2012,06,27,11,11,16.30
2012,06,27,11,12,16.30
2012,06,27,11,13,16.40
2012,06,27,11,14,16.30
2012,06,27,11,15,16.30
2012,06,27,11,16,16.30
2012,06,27,11,17,16.40
2012,06,27,11,18,16.60
2012,06,27,11,19,16.70
2012,06,27,11,20,16.70
2012,06,27,11,21,16.70
2012,06,27,11,22,16.80
2012,06,27,11,23,16.90
2012,06,27,11,24,17.00
2012,06,27,11,25,17.20
2012,06,27,11,26,17.30
2012,06,27,11,27,17.20
2012,06,27,11,28,17.10
2012,06,27,11,29,17.20
2012,06,27,11,30,17.30
2012,06,27,11,31,17.30
2012,06,27,11,32,17.00
2012,06,27,11,33,16.90
2012,06,27,11,34,16.80
2012,06,27,11,35,16.70
2012,06,27,11,36,16.50
2012,06,27,11,37,16.40
2012,06,27,11,38,16.40
2012,06,27,11,39,16.40
2012,06,27,11,40,16.60
2012,06,27,11,41,16.80
2012,06,27,11,42,16.90
2012,06,27,11,43,16.70
2012,06,27,11,44,16.80
2012,06,27,11,45,16.70
2012,06,27,11,46,16.70
2012,06,27,11,47,16.60
2012,06,27,11,48,16.60
2012,06,27,11,49,16.80
2012,06,27,11,50,17.00
2012,06,27,11,51,17.10
2012,06,27,11,52,17.30
2012,06,27,11,53,17.30
2012,06,27,11,54,17.00
2012,06,27,11,55,16.80
2012,06,27,11,56,16.70
2012,06,27,11,57,16.50
2012,06,27,11,58,16.40
2012,06,27,11,59,16.40
2012,06,27,12,00,16.50
2012,06,27,12,01,16.60
2012,06,27,12,02,16.80
2012,06,27,12,03,17.00
2012,06,27,12,04,17.10
2012,06,27,12,05,17.00
2012,06,27,12,06,17.00
2012,06,27,12,07,16.90
2012,06,27,12,08,16.80
2012,06,27,12,09,16.80
2012,06,27,12,10,16.80
2012,06,27,12,11,16.90
2012,06,27,12,12,17.00
2012,06,27,12,13,17.00
2012,06,27,12,14,16.80
2012,06,27,12,15,16.70
2012,06,27,12,16,16.90
2012,06,27,12,17,17.00
2012,06,27,12,18,17.10
2012,06,27,12,19,17.30
2012,06,27,12,20,17.50
2012,06,27,12,21,17.40
2012,06,27,12,22,17.30
2012,06,27,12,23,17.00
2012,06,27,12,24,16.80
2012,06,27,12,25,16.70
2012,06,27,12,26,16.70
2012,06,27,12,27,16.70
2012,06,27,12,28,16.90
2012,06,27,12,29,17.10
2012,06,27,12,30,17.20
2012,06,27,12,31,17.10
2012,06,27,12,32,17.10
2012,06,27,12,33,17.20
2012,06,27,12,34,17.30
2012,06,27,12,35,17.30
2012,06,27,12,36,17.30
2012,06,27,12,37,17.30
2012,06,27,12,38,17.20
2012,06,27,12,39,17.10
2012,06,27,12,40,17.20
2012,06,27,12,41,17.30
2012,06,27,12,42,17.30
2012,06,27,12,43,17.30
2012,06,27,12,44,17.40
2012,06,27,12,45,17.50
2012,06,27,12,46,17.70
2012,06,27,12,47,17.70
2012,06,27,12,48,17.50
2012,06,27,12,49,17.30
2012,06,27,12,50,17.10
2012,06,27,12,51,16.90
2012,06,27,12,52,16.80
2012,06,27,12,53,16.80
2012,06,27,12,54,16.80
2012,06,27,12,55,16.80
2012,06,27,12,56,16.90
2012,06,27,12,57,16.90
2012,06,27,12,58,16.80
2012,06,27,12,59,16.70
2012,06,27,13,00,16.70
2012,06,27,13,01,16.70
2012,06,27,13,02,16.60
2012,06,27,13,03,16.70
2012,06,27,13,04,16.80
2012,06,27,13,05,16.90
2012,06,27,13,06,17.00
2012,06,27,13,07,17.00
2012,06,27,13,08,17.10
2012,06,27,13,09,17.30
2012,06,27,13,10,17.30
2012,06,27,13,11,17.30
2012,06,27,13,12,17.30
2012,06,27,13,13,17.40
2012,06,27,13,14,17.60
2012,06,27,13,15,17.50
2012,06,27,13,16,17.40
2012,06,27,13,17,17.30
2012,06,27,13,18,17.30
2012,06,27,13,19,17.30
2012,06,27,13,20,17.30
2012,06,27,13,21,17.30
2012,06,27,13,22,17.40
2012,06,27,13,23,17.40
2012,06,27,13,24,17.30
2012,06,27,13,25,17.30
2012,06,27,13,26,17.40
2012,06,27,13,27,17.60
2012,06,27,13,28,17.80
2012,06,27,13,29,17.80
2012,06,27,13,30,17.90
2012,06,27,13,31,17.90
2012,06,27,13,32,17.90
2012,06,27,13,33,17.90
2012,06,27,13,34,17.70
2012,06,27,13,35,17.80
2012,06,27,13,36,17.90
2012,06,27,13,37,18.00
2012,06,27,13,38,17.90
2012,06,27,13,39,17.90
2012,06,27,13,40,17.90
2012,06,27,13,41,17.90
2012,06,27,13,42,17.90
2012,06,27,13,43,17.70
2012,06,27,13,44,17.60
2012,06,27,13,45,17.60
2012,06,27,13,46,17.60
2012,06,27,13,47,17.50
2012,06,27,13,48,17.60
2012,06,27,13,49,17.70
2012,06,27,13,50,17.90
2012,06,27,13,51,18.10
2012,06,27,13,52,18.20
2012,06,27,13,53,18.20
2012,06,27,13,54,18.30
2012,06,27,13,55,18.30
2012,06,27,13,56,18.30
2012,06,27,13,57,18.50
2012,06,27,13,58,18.60
2012,06,27,13,59,18.70
2012,06,27,14,00,18.70
2012,06,27,14,01,18.70
2012,06,27,14,02,18.60
2012,06,27,14,03,18.40
2012,06,27,14,04,18.20
2012,06,27,14,05,18.00
2012,06,27,14,06,17.80
2012,06,27,14,07,17.80
2012,06,27,14,08,18.00
2012,06,27,14,09,18.20
2012,06,27,14,10,18.30
2012,06,27,14,11,18.40
2012,06,27,14,12,18.40
2012,06,27,14,13,18.30
2012,06,27,14,14,18.20
2012,06,27,14,15,18.20
2012,06,27,14,16,18.10
2012,06,27,14,17,17.90
2012,06,27,14,18,17.80
2012,06,27,14,19,17.80
2012,06,27,14,20,17.90
2012,06,27,14,21,17.90
2012,06,27,14,22,17.90
2012,06,27,14,23,17.90
2012,06,27,14,24,17.90
2012,06,27,14,25,17.90
2012,06,27,14,26,17.80
2012,06,27,14,27,17.80
2012,06,27,14,28,17.90
2012,06,27,14,29,17.90
2012,06,27,14,30,17.90
2012,06,27,14,31,17.90
2012,06,27,14,32,17.90
2012,06,27,14,33,17.90
2012,06,27,14,34,17.80
2012,06,27,14,35,17.90
2012,06,27,14,36,18.00
2012,06,27,14,37,18.10
2012,06,27,14,38,18.30
2012,06,27,14,39,18.50
2012,06,27,14,40,18.60
2012,06,27,14,41,18.80
2012,06,27,14,42,18.80
2012,06,27,14,43,18.70
2012,06,27,14,44,18.60
2012,06,27,14,45,18.50
2012,06,27,14,46,18.40
2012,06,27,14,47,18.30
2012,06,27,14,48,18.20
2012,06,27,14,49,18.20
2012,06,27,14,50,18.20
2012,06,27,14,51,18.30
2012,06,27,14,52,18.40
2012,06,27,14,53,18.50
2012,06,27,14,54,18.50
2012,06,27,14,55,18.40
2012,06,27,14,56,18.60
2012,06,27,14,57,18.70
2012,06,27,14,58,18.70
2012,06,27,14,59,18.80
2012,06,27,15,00,18.90
2012,06,27,15,01,19.00
2012,06,27,15,02,18.90
2012,06,27,15,03,18.90
2012,06,27,15,04,18.80
2012,06,27,15,05,18.60
2012,06,27,15,06,18.60
2012,06,27,15,07,18.60
2012,06,27,15,08,18.80
2012,06,27,15,09,18.80
2012,06,27,15,10,18.70
2012,06,27,15,11,18.70
2012,06,27,15,12,18.80
2012,06,27,15,13,18.60
2012,06,27,15,14,18.50
2012,06,27,15,15,18.40
2012,06,27,15,16,18.30
2012,06,27,15,17,18.30
2012,06,27,15,18,18.30
2012,06,27,15,19,18.20
2012,06,27,15,20,18.20
2012,06,27,15,21,18.20
2012,06,27,15,22,18.10
2012,06,27,15,23,18.10
2012,06,27,15,24,18.10
2012,06,27,15,25,18.10
2012,06,27,15,26,18.10
2012,06,27,15,27,18.20
2012,06,27,15,28,18.30
2012,06,27,15,29,18.40
2012,06,27,15,30,18.60
2012,06,27,15,31,18.70
2012,06,27,15,32,18.80
2012,06,27,15,33,18.80
2012,06,27,15,34,18.60
2012,06,27,15,35,18.40
2012,06,27,15,36,18.30
2012,06,27,15,37,18.30
2012,06,27,15,38,18.20
2012,06,27,15,39,18.20
2012,06,27,15,40,18.20
2012,06,27,15,41,18.30
2012,06,27,15,42,18.40
2012,06,27,15,43,18.50
2012,06,27,15,44,18.50
2012,06,27,15,45,18.40
2012,06,27,15,46,18.30
2012,06,27,15,47,18.00
2012,06,27,15,48,17.90
2012,06,27,15,49,17.90
2012,06,27,15,50,17.90
2012,06,27,15,51,17.90
2012,06,27,15,52,18.00
2012,06,27,15,53,18.10
2012,06,27,15,54,18.10
2012,06,27,15,55,18.00
2012,06,27,15,56,17.90
2012,06,27,15,57,17.80
2012,06,27,15,58,17.80
2012,06,27,15,59,17.90
2012,06,27,16,00,18.10
2012,06,27,16,01,18.20
2012,06,27,16,02,18.20
2012,06,27,16,03,18.20
2012,06,27,16,04,18.00
2012,06,27,16,05,17.90
2012,06,27,16,06,18.00
2012,06,27,16,07,18.10
2012,06,27,16,08,18.20
2012,06,27,16,09,18.30
2012,06,27,16,10,18.40
2012,06,27,16,11,18.60
2012,06,27,16,12,18.70
2012,06,27,16,13,18.60
2012,06,27,16,14,18.50
2012,06,27,16,15,18.40
2012,06,27,16,16,18.50
2012,06,27,16,17,18.50
2012,06,27,16,18,18.50
2012,06,27,16,19,18.40
2012,06,27,16,20,18.30
2012,06,27,16,21,18.30
2012,06,27,16,22,18.40
2012,06,27,16,23,18.40
2012,06,27,16,24,18.50
2012,06,27,16,25,18.60
2012,06,27,16,26,18.70
2012,06,27,16,27,18.90
2012,06,27,16,28,19.00
2012,06,27,16,29,19.10
2012,06,27,16,30,19.10
2012,06,27,16,31,19.10
2012,06,27,16,32,19.10
2012,06,27,16,33,19.10
2012,06,27,16,34,19.10
2012,06,27,16,35,19.00
2012,06,27,16,36,18.90
2012,06,27,16,37,18.90
2012,06,27,16,38,18.90
2012,06,27,16,39,19.00
2012,06,27,16,40,19.10
2012,06,27,16,41,19.10
2012,06,27,16,42,19.20
2012,06,27,16,43,19.30
2012,06,27,16,44,19.30
2012,06,27,16,45,19.40
2012,06,27,16,46,19.40
2012,06,27,16,47,19.40
2012,06,27,16,48,19.30
2012,06,27,16,49,19.20
2012,06,27,16,50,19.20
2012,06,27,16,51,19.30
2012,06,27,16,52,19.20
2012,06,27,16,53,19.00
2012,06,27,16,54,18.90
2012,06,27,16,55,18.90
2012,06,27,16,56,19.00
2012,06,27,16,57,19.10
2012,06,27,16,58,19.20
2012,06,27,16,59,19.30
2012,06,27,17,00,19.40
2012,06,27,17,01,19.60
2012,06,27,17,02,19.70
2012,06,27,17,03,19.70
2012,06,27,17,04,19.60
2012,06,27,17,05,19.40
2012,06,27,17,06,19.40
2012,06,27,17,07,19.40
2012,06,27,17,08,19.40
2012,06,27,17,09,19.30
2012,06,27,17,10,19.40
2012,06,27,17,11,19.40
2012,06,27,17,12,19.50
2012,06,27,17,13,19.60
2012,06,27,17,14,19.60
2012,06,27,17,15,19.60
2012,06,27,17,16,19.60
2012,06,27,17,17,19.60
2012,06,27,17,18,19.50
2012,06,27,17,19,19.40
2012,06,27,17,20,19.30
2012,06,27,17,21,19.30
2012,06,27,17,22,19.20
2012,06,27,17,23,19.20
2012,06,27,17,24,19.20
2012,06,27,17,25,19.20
2012,06,27,17,26,19.30
2012,06,27,17,27,19.40
2012,06,27,17,28,19.50
2012,06,27,17,29,19.60